Flag for Poland Weather past 2 weeks in Włocławek, Poland

Now
46 °F

Cool.


Feels Like: 44 °F
Forecast: 36 / 46 °F
Wind: 6 mph from South

Location: Plock

Current Time: Mar 30, 2015 at 3:44:10 AM

Latest Report: Mar 30, 2015 at 3:00 AM


Visibility: 3 mi

Pressure: 29.18 "Hg

Humidity: 93%

Dew point: 44 °F

Location of WłocławekLocation

Historic Weather in Włocławek — Graph

°F

Włocławek temperature yesterday

Maximum temperature yesterday: 50 °F (at 2:00 PM)
Minimum temperature yesterday: 31 °F (at 5:00 AM)
Average temperature yesterday: 42 °F

Past Weeks' High & Low Weather Summary

 TemperatureHumidityPressure
High61 °F (Mar 25, 4:00 PM)100% (Mar 29, 9:00 AM)30.73 "Hg (Mar 29, 9:00 AM)
Low24 °F (Mar 23, 5:00 AM)26% (Mar 18, 1:00 PM)29.23 "Hg (Mar 30, 2:00 AM)
Average43 °F68%30.16 "Hg
* Reported Mar 15 1:00 AM — Mar 30 2:00 AM, Włocławek, Weather by CustomWeather, © 2015

Note: Actual official high and low records may vary slightly from our data, if they occured in-between our weather recording intervals... More about our weather records

Advertising

Włocławek weather history for previous 24 hours

 ConditionsComfort  
Time TempWeatherWind HumidityBarometerVisibility
2:00 AM
Mon, Mar 30
46 °FRain showers. Overcast.6 mph94%29.23 "Hg3 mi
1:00 AM46 °FDrizzle. Overcast.6 mph94%29.26 "Hg3 mi
12:00 AM47 °FDrizzle. Overcast.6 mph94%29.32 "Hg2 mi
10:00 PM
Sun, Mar 29
47 °FLight rain. Overcast.5 mph95%29.41 "Hg3 mi
9:00 PM47 °FLight rain. Overcast.5 mph95%29.44 "Hg2 mi
8:00 PM47 °FLight rain. Overcast.3 mph91%29.47 "Hg3 mi
7:00 PM49 °FDrizzle. Cloudy.5 mph80%29.47 "Hg6 mi
6:00 PM48 °FCool.3 mph80%29.50 "Hg6 mi
5:00 PM48 °FCool.7 mph77%29.54 "Hg7 mi
4:00 PM50 °FCool.6 mph65%29.57 "Hg8 mi
3:00 PM50 °FLight rain. Cloudy.6 mph57%29.59 "Hg9 mi
2:00 PM50 °FCool.7 mph51%29.62 "Hg12 mi
1:00 PM49 °FCool.7 mph55%29.65 "Hg10 mi
12:00 PM47 °FCool.6 mph63%29.69 "Hg8 mi
11:00 AM46 °FFog.6 mph68%29.73 "Hg6 mi
10:00 AM42 °FQuite cool.5 mph96%29.76 "Hg2 mi
9:00 AM37 °FDuststorm.3 mph100%29.80 "Hg1 mi
8:00 AM33 °FDuststorm.2 mph99%29.83 "Hg0 mi
7:00 AM32 °FDuststorm.1 mph99%29.85 "Hg0 mi
6:00 AM32 °FDuststorm.2 mph98%29.87 "Hg0 mi
5:00 AM31 °FDuststorm.2 mph97%29.88 "Hg0 mi
4:00 AM34 °FDuststorm.1 mph97%29.90 "Hg0 mi
3:00 AM36 °FChilly.1 mph97%29.93 "Hg1 mi
Weather by CustomWeather, © 2015

See weather overviewHow to use our weather pages